owner,sensor,date,latitude,longitude,vertical_datum,sea_water_practical_salinity,qcFlag 
NERRS,ioos:station:NOAA.NERRS:gndblwq:1,2014-01-03T18:00:00Z,30.3571,-88.4629,0.14,0.4,1111122 
NERRS,ioos:station:NOAA.NERRS:gndblwq:1,2014-01-03T19:00:00Z,30.3571,-88.4629,0.13,18.6,1111122 
NERRS,ioos:station:NOAA.NERRS:gndblwq:1,2014-01-03T20:00:00Z,30.3571,-88.4629,0.17,19.0,1111122 
NERRS,ioos:station:NOAA.NERRS:gndblwq:1,2014-01-03T21:00:00Z,30.3571,-88.4629,0.24,18.6,1111122 
NERRS,ioos:station:NOAA.NERRS:gndblwq:1,2014-01-03T22:00:00Z,30.3571,-88.4629,0.28,18.4,1111122 
NERRS,ioos:station:NOAA.NERRS:gndblwq:1,2014-01-03T23:00:00Z,30.3571,-88.4629,0.29,18.7,1111122 
NERRS,ioos:station:NOAA.NERRS:gndblwq:1,2014-01-04T00:00:00Z,30.3571,-88.4629,0.3,19.1,1111122 
NERRS,ioos:station:NOAA.NERRS:gndblwq:1,2014-01-04T01:00:00Z,30.3571,-88.4629,0.37,19.5,1111122 
NERRS,ioos:station:NOAA.NERRS:gndblwq:1,2014-01-04T02:00:00Z,30.3571,-88.4629,0.44,20.5,1111122 
NERRS,ioos:station:NOAA.NERRS:gndblwq:1,2014-01-04T03:00:00Z,30.3571,-88.4629,0.54,22.4,1111122 
NERRS,ioos:station:NOAA.NERRS:gndblwq:1,2014-01-04T04:00:00Z,30.3571,-88.4629,0.62,23.0,1111122 
NERRS,ioos:station:NOAA.NERRS:gndblwq:1,2014-01-04T05:00:00Z,30.3571,-88.4629,0.66,23.6,1111122 
NERRS,ioos:station:NOAA.NERRS:gndblwq:1,2014-01-04T06:00:00Z,30.3571,-88.4629,0.61,23.5,1111122 
NERRS,ioos:station:NOAA.NERRS:gndblwq:1,2014-01-04T07:00:00Z,30.3571,-88.4629,0.56,21.9,1111122 
NERRS,ioos:station:NOAA.NERRS:gndblwq:1,2014-01-04T08:00:00Z,30.3571,-88.4629,0.57,23.0,1111122 
NERRS,ioos:station:NOAA.NERRS:gndblwq:1,2014-01-04T09:00:00Z,30.3571,-88.4629,0.52,20.5,1111122 
NERRS,ioos:station:NOAA.NERRS:gndblwq:1,2014-01-04T10:00:00Z,30.3571,-88.4629,0.43,19.1,1111122 
NERRS,ioos:station:NOAA.NERRS:gndblwq:1,2014-01-04T11:00:00Z,30.3571,-88.4629,0.33,20.4,1111122 
NERRS,ioos:station:NOAA.NERRS:gndblwq:1,2014-01-04T12:00:00Z,30.3571,-88.4629,0.23,20.1,1111122 
NERRS,ioos:station:NOAA.NERRS:gndblwq:1,2014-01-04T13:00:00Z,30.3571,-88.4629,0.15,19.3,1111122 
NERRS,ioos:station:NOAA.NERRS:gndblwq:1,2014-01-04T14:00:00Z,30.3571,-88.4629,0.13,18.7,1111122 
NERRS,ioos:station:NOAA.NERRS:gndblwq:1,2014-01-04T15:00:00Z,30.3571,-88.4629,0.17,19.6,1111122 
NERRS,ioos:station:NOAA.NERRS:gndblwq:1,2014-01-04T16:00:00Z,30.3571,-88.4629,0.2,19.6,1111122 
NERRS,ioos:station:NOAA.NERRS:gndblwq:1,2014-01-04T17:00:00Z,30.3571,-88.4629,0.21,19.6,1111122 
NERRS,ioos:station:NOAA.NERRS:gndblwq:1,2014-01-04T18:00:00Z,30.3571,-88.4629,0.18,19.6,1111122 
NERRS,ioos:station:NOAA.NERRS:gndblwq:1,2014-01-04T19:00:00Z,30.3571,-88.4629,0.21,19.8,1111122 
NERRS,ioos:station:NOAA.NERRS:gndblwq:1,2014-01-04T20:00:00Z,30.3571,-88.4629,0.28,19.8,1111122 
NERRS,ioos:station:NOAA.NERRS:gndblwq:1,2014-01-04T21:00:00Z,30.3571,-88.4629,0.34,20.1,1111122 
NERRS,ioos:station:NOAA.NERRS:gndblwq:1,2014-01-04T22:00:00Z,30.3571,-88.4629,0.39,20.5,1111122 
NERRS,ioos:station:NOAA.NERRS:gndblwq:1,2014-01-04T23:00:00Z,30.3571,-88.4629,0.42,20.7,1111122 
NERRS,ioos:station:NOAA.NERRS:gndblwq:1,2014-01-05T00:00:00Z,30.3571,-88.4629,0.43,20.9,1111122 
NERRS,ioos:station:NOAA.NERRS:gndblwq:1,2014-01-05T01:00:00Z,30.3571,-88.4629,0.46,21.0,1111122 
NERRS,ioos:station:NOAA.NERRS:gndblwq:1,2014-01-05T02:00:00Z,30.3571,-88.4629,0.49,21.4,1111122 
NERRS,ioos:station:NOAA.NERRS:gndblwq:1,2014-01-05T03:00:00Z,30.3571,-88.4629,0.57,21.8,1111122 
NERRS,ioos:station:NOAA.NERRS:gndblwq:1,2014-01-05T04:00:00Z,30.3571,-88.4629,0.63,22.7,1111122 
NERRS,ioos:station:NOAA.NERRS:gndblwq:1,2014-01-05T05:00:00Z,30.3571,-88.4629,0.69,23.6,1111122 
NERRS,ioos:station:NOAA.NERRS:gndblwq:1,2014-01-05T06:00:00Z,30.3571,-88.4629,0.69,23.9,1111122 
NERRS,ioos:station:NOAA.NERRS:gndblwq:1,2014-01-05T07:00:00Z,30.3571,-88.4629,0.65,23.8,1111122 
NERRS,ioos:station:NOAA.NERRS:gndblwq:1,2014-01-05T08:00:00Z,30.3571,-88.4629,0.59,23.6,1111122 
NERRS,ioos:station:NOAA.NERRS:gndblwq:1,2014-01-05T09:00:00Z,30.3571,-88.4629,0.55,21.6,1111122 
NERRS,ioos:station:NOAA.NERRS:gndblwq:1,2014-01-05T10:00:00Z,30.3571,-88.4629,0.53,21.8,1111122 
NERRS,ioos:station:NOAA.NERRS:gndblwq:1,2014-01-05T11:00:00Z,30.3571,-88.4629,0.46,21.0,1111122 
NERRS,ioos:station:NOAA.NERRS:gndblwq:1,2014-01-05T12:00:00Z,30.3571,-88.4629,0.38,20.7,1111122 
NERRS,ioos:station:NOAA.NERRS:gndblwq:1,2014-01-05T13:00:00Z,30.3571,-88.4629,0.31,19.9,1111122 
NERRS,ioos:station:NOAA.NERRS:gndblwq:1,2014-01-05T14:00:00Z,30.3571,-88.4629,0.29,19.3,1111122 
NERRS,ioos:station:NOAA.NERRS:gndblwq:1,2014-01-05T15:00:00Z,30.3571,-88.4629,0.33,20.4,1111122 
NERRS,ioos:station:NOAA.NERRS:gndblwq:1,2014-01-05T16:00:00Z,30.3571,-88.4629,0.36,20.8,1111122 
NERRS,ioos:station:NOAA.NERRS:gndblwq:1,2014-01-05T17:00:00Z,30.3571,-88.4629,0.38,20.9,1111122 
NERRS,ioos:station:NOAA.NERRS:gndblwq:1,2014-01-05T18:00:00Z,30.3571,-88.4629,0.4,21.0,1111122 
NERRS,ioos:station:NOAA.NERRS:gndblwq:1,2014-01-05T19:00:00Z,30.3571,-88.4629,0.43,21.2,1111122 
NERRS,ioos:station:NOAA.NERRS:gndblwq:1,2014-01-05T20:00:00Z,30.3571,-88.4629,0.46,21.4,1111122 
NERRS,ioos:station:NOAA.NERRS:gndblwq:1,2014-01-05T21:00:00Z,30.3571,-88.4629,0.49,21.7,1111122 
NERRS,ioos:station:NOAA.NERRS:gndblwq:1,2014-01-05T22:00:00Z,30.3571,-88.4629,0.53,22.2,1111122 
NERRS,ioos:station:NOAA.NERRS:gndblwq:1,2014-01-05T23:00:00Z,30.3571,-88.4629,0.57,22.4,1111122 
NERRS,ioos:station:NOAA.NERRS:gndblwq:1,2014-01-06T00:00:00Z,30.3571,-88.4629,0.6,22.6,1111122 
NERRS,ioos:station:NOAA.NERRS:gndblwq:1,2014-01-06T01:00:00Z,30.3571,-88.4629,0.63,23.0,1111122 
NERRS,ioos:station:NOAA.NERRS:gndblwq:1,2014-01-06T02:00:00Z,30.3571,-88.4629,0.67,22.9,1111122 
NERRS,ioos:station:NOAA.NERRS:gndblwq:1,2014-01-06T03:00:00Z,30.3571,-88.4629,0.69,22.9,1111122 
NERRS,ioos:station:NOAA.NERRS:gndblwq:1,2014-01-06T04:00:00Z,30.3571,-88.4629,0.67,23.0,1111122 
NERRS,ioos:station:NOAA.NERRS:gndblwq:1,2014-01-06T05:00:00Z,30.3571,-88.4629,0.63,22.2,1111122 
NERRS,ioos:station:NOAA.NERRS:gndblwq:1,2014-01-06T06:00:00Z,30.3571,-88.4629,0.52,21.0,1111122 
NERRS,ioos:station:NOAA.NERRS:gndblwq:1,2014-01-06T07:00:00Z,30.3571,-88.4629,0.38,20.6,1111122 
NERRS,ioos:station:NOAA.NERRS:gndblwq:1,2014-01-06T08:00:00Z,30.3571,-88.4629,0.21,21.1,1111122 
NERRS,ioos:station:NOAA.NERRS:gndblwq:1,2014-01-06T09:00:00Z,30.3571,-88.4629,0.12,20.9,1111122 
NERRS,ioos:station:NOAA.NERRS:gndblwq:1,2014-01-06T10:00:00Z,30.3571,-88.4629,0.1,20.9,1111122 
NERRS,ioos:station:NOAA.NERRS:gndblwq:1,2014-01-06T11:00:00Z,30.3571,-88.4629,0.11,20.0,1111122 
NERRS,ioos:station:NOAA.NERRS:gndblwq:1,2014-01-06T12:00:00Z,30.3571,-88.4629,0.11,13.8,1111122 
NERRS,ioos:station:NOAA.NERRS:gndblwq:1,2014-01-06T13:00:00Z,30.3571,-88.4629,0.13,0.4,1111122 
NERRS,ioos:station:NOAA.NERRS:gndblwq:1,2014-01-06T14:00:00Z,30.3571,-88.4629,0.14,13.1,1111122 
NERRS,ioos:station:NOAA.NERRS:gndblwq:1,2014-01-06T15:00:00Z,30.3571,-88.4629,0.16,0.4,1111122 
NERRS,ioos:station:NOAA.NERRS:gndblwq:1,2014-01-06T16:00:00Z,30.3571,-88.4629,0.17,1.7,1111122 
NERRS,ioos:station:NOAA.NERRS:gndblwq:1,2014-01-06T17:00:00Z,30.3571,-88.4629,0.16,19.8,1111122 
NERRS,ioos:station:NOAA.NERRS:gndblwq:1,2014-01-06T18:00:00Z,30.3571,-88.4629,0.16,19.8,1111122 
NERRS,ioos:station:NOAA.NERRS:gndblwq:1,2014-01-06T19:00:00Z,30.3571,-88.4629,0.16,19.9,1111122 
NERRS,ioos:station:NOAA.NERRS:gndblwq:1,2014-01-06T20:00:00Z,30.3571,-88.4629,0.16,20.1,1111122 
NERRS,ioos:station:NOAA.NERRS:gndblwq:1,2014-01-06T21:00:00Z,30.3571,-88.4629,0.18,20.2,1111122 
NERRS,ioos:station:NOAA.NERRS:gndblwq:1,2014-01-06T22:00:00Z,30.3571,-88.4629,0.2,20.2,1111122 
NERRS,ioos:station:NOAA.NERRS:gndblwq:1,2014-01-06T23:00:00Z,30.3571,-88.4629,0.21,20.2,1111122 
NERRS,ioos:station:NOAA.NERRS:gndblwq:1,2014-01-07T00:00:00Z,30.3571,-88.4629,0.21,20.3,1111122 
NERRS,ioos:station:NOAA.NERRS:gndblwq:1,2014-01-07T01:00:00Z,30.3571,-88.4629,0.23,20.3,1111122 
NERRS,ioos:station:NOAA.NERRS:gndblwq:1,2014-01-07T02:00:00Z,30.3571,-88.4629,0.25,20.2,1111122 
NERRS,ioos:station:NOAA.NERRS:gndblwq:1,2014-01-07T03:00:00Z,30.3571,-88.4629,0.23,20.3,1111122 
NERRS,ioos:station:NOAA.NERRS:gndblwq:1,2014-01-07T04:00:00Z,30.3571,-88.4629,0.23,20.3,1111122 
NERRS,ioos:station:NOAA.NERRS:gndblwq:1,2014-01-07T05:00:00Z,30.3571,-88.4629,0.22,20.1,1111122 
NERRS,ioos:station:NOAA.NERRS:gndblwq:1,2014-01-07T06:00:00Z,30.3571,-88.4629,0.22,20.2,1111122 
NERRS,ioos:station:NOAA.NERRS:gndblwq:1,2014-01-07T07:00:00Z,30.3571,-88.4629,0.22,20.1,1111122 
NERRS,ioos:station:NOAA.NERRS:gndblwq:1,2014-01-07T08:00:00Z,30.3571,-88.4629,0.22,20.1,1111122 
NERRS,ioos:station:NOAA.NERRS:gndblwq:1,2014-01-07T09:00:00Z,30.3571,-88.4629,0.23,20.1,1111122 
NERRS,ioos:station:NOAA.NERRS:gndblwq:1,2014-01-07T10:00:00Z,30.3571,-88.4629,0.23,20.1,1111122 
NERRS,ioos:station:NOAA.NERRS:gndblwq:1,2014-01-07T11:00:00Z,30.3571,-88.4629,0.24,20.1,1111122 
NERRS,ioos:station:NOAA.NERRS:gndblwq:1,2014-01-07T12:00:00Z,30.3571,-88.4629,0.23,20.1,1111122 
NERRS,ioos:station:NOAA.NERRS:gndblwq:1,2014-01-07T13:00:00Z,30.3571,-88.4629,0.24,20.1,1111122 
NERRS,ioos:station:NOAA.NERRS:gndblwq:1,2014-01-07T14:00:00Z,30.3571,-88.4629,0.24,20.2,1111122 
NERRS,ioos:station:NOAA.NERRS:gndblwq:1,2014-01-07T15:00:00Z,30.3571,-88.4629,0.24,20.1,1111122 
NERRS,ioos:station:NOAA.NERRS:gndblwq:1,2014-01-07T16:00:00Z,30.3571,-88.4629,0.25,20.1,1111122 
NERRS,ioos:station:NOAA.NERRS:gndblwq:1,2014-01-07T17:00:00Z,30.3571,-88.4629,0.27,20.3,1111122 
NERRS,ioos:station:NOAA.NERRS:gndblwq:1,2014-01-07T18:00:00Z,30.3571,-88.4629,0.32,20.9,1111122 
NERRS,ioos:station:NOAA.NERRS:gndblwq:1,2014-01-07T19:00:00Z,30.3571,-88.4629,0.34,20.8,1111122 
NERRS,ioos:station:NOAA.NERRS:gndblwq:1,2014-01-07T20:00:00Z,30.3571,-88.4629,0.34,21.2,1111122 
NERRS,ioos:station:NOAA.NERRS:gndblwq:1,2014-01-07T21:00:00Z,30.3571,-88.4629,0.32,21.2,1111122 
NERRS,ioos:station:NOAA.NERRS:gndblwq:1,2014-01-07T22:00:00Z,30.3571,-88.4629,0.32,21.1,1111122 
NERRS,ioos:station:NOAA.NERRS:gndblwq:1,2014-01-07T23:00:00Z,30.3571,-88.4629,0.31,21.0,1111122 
NERRS,ioos:station:NOAA.NERRS:gndblwq:1,2014-01-08T00:00:00Z,30.3571,-88.4629,0.28,20.8,1111122 
NERRS,ioos:station:NOAA.NERRS:gndblwq:1,2014-01-08T01:00:00Z,30.3571,-88.4629,0.26,20.3,1111122 
NERRS,ioos:station:NOAA.NERRS:gndblwq:1,2014-01-08T02:00:00Z,30.3571,-88.4629,0.24,20.3,1111122 
NERRS,ioos:station:NOAA.NERRS:gndblwq:1,2014-01-08T03:00:00Z,30.3571,-88.4629,0.21,20.0,1111122 
NERRS,ioos:station:NOAA.NERRS:gndblwq:1,2014-01-08T04:00:00Z,30.3571,-88.4629,0.2,19.9,1111122 
NERRS,ioos:station:NOAA.NERRS:gndblwq:1,2014-01-08T05:00:00Z,30.3571,-88.4629,0.2,20.0,1111122 
NERRS,ioos:station:NOAA.NERRS:gndblwq:1,2014-01-08T06:00:00Z,30.3571,-88.4629,0.19,20.3,1111122 
NERRS,ioos:station:NOAA.NERRS:gndblwq:1,2014-01-08T07:00:00Z,30.3571,-88.4629,0.19,20.2,1111122 
NERRS,ioos:station:NOAA.NERRS:gndblwq:1,2014-01-08T08:00:00Z,30.3571,-88.4629,0.19,20.0,1111122 
NERRS,ioos:station:NOAA.NERRS:gndblwq:1,2014-01-08T09:00:00Z,30.3571,-88.4629,0.19,20.2,1111122 
NERRS,ioos:station:NOAA.NERRS:gndblwq:1,2014-01-08T10:00:00Z,30.3571,-88.4629,0.18,20.3,1111122 
NERRS,ioos:station:NOAA.NERRS:gndblwq:1,2014-01-08T11:00:00Z,30.3571,-88.4629,0.18,20.2,1111122 
NERRS,ioos:station:NOAA.NERRS:gndblwq:1,2014-01-08T12:00:00Z,30.3571,-88.4629,0.18,20.2,1111122 
NERRS,ioos:station:NOAA.NERRS:gndblwq:1,2014-01-08T13:00:00Z,30.3571,-88.4629,0.19,20.3,1111122 
NERRS,ioos:station:NOAA.NERRS:gndblwq:1,2014-01-08T14:00:00Z,30.3571,-88.4629,0.2,20.3,1111122 
NERRS,ioos:station:NOAA.NERRS:gndblwq:1,2014-01-08T15:00:00Z,30.3571,-88.4629,0.26,20.4,1111122 
NERRS,ioos:station:NOAA.NERRS:gndblwq:1,2014-01-08T16:00:00Z,30.3571,-88.4629,0.31,21.3,1111122 
NERRS,ioos:station:NOAA.NERRS:gndblwq:1,2014-01-08T17:00:00Z,30.3571,-88.4629,0.34,21.5,1111122 
NERRS,ioos:station:NOAA.NERRS:gndblwq:1,2014-01-08T18:00:00Z,30.3571,-88.4629,0.39,21.8,1111122 
NERRS,ioos:station:NOAA.NERRS:gndblwq:1,2014-01-08T19:00:00Z,30.3571,-88.4629,0.46,23.4,1111122 
NERRS,ioos:station:NOAA.NERRS:gndblwq:1,2014-01-08T20:00:00Z,30.3571,-88.4629,0.53,24.0,1111122 
NERRS,ioos:station:NOAA.NERRS:gndblwq:1,2014-01-08T21:00:00Z,30.3571,-88.4629,0.59,24.7,1111122 
NERRS,ioos:station:NOAA.NERRS:gndblwq:1,2014-01-08T22:00:00Z,30.3571,-88.4629,0.6,24.7,1111122 
NERRS,ioos:station:NOAA.NERRS:gndblwq:1,2014-01-08T23:00:00Z,30.3571,-88.4629,0.56,24.5,1111122 
NERRS,ioos:station:NOAA.NERRS:gndblwq:1,2014-01-09T00:00:00Z,30.3571,-88.4629,0.54,23.9,1111122 
NERRS,ioos:station:NOAA.NERRS:gndblwq:1,2014-01-09T01:00:00Z,30.3571,-88.4629,0.54,23.7,1111122 
NERRS,ioos:station:NOAA.NERRS:gndblwq:1,2014-01-09T02:00:00Z,30.3571,-88.4629,0.56,24.1,1111122 
NERRS,ioos:station:NOAA.NERRS:gndblwq:1,2014-01-09T03:00:00Z,30.3571,-88.4629,0.54,24.0,1111122 
NERRS,ioos:station:NOAA.NERRS:gndblwq:1,2014-01-09T04:00:00Z,30.3571,-88.4629,0.48,22.7,1111122 
NERRS,ioos:station:NOAA.NERRS:gndblwq:1,2014-01-09T05:00:00Z,30.3571,-88.4629,0.41,20.9,1111122 
NERRS,ioos:station:NOAA.NERRS:gndblwq:1,2014-01-09T06:00:00Z,30.3571,-88.4629,0.37,20.8,1111122 
NERRS,ioos:station:NOAA.NERRS:gndblwq:1,2014-01-09T07:00:00Z,30.3571,-88.4629,0.33,20.8,1111122 
NERRS,ioos:station:NOAA.NERRS:gndblwq:1,2014-01-09T08:00:00Z,30.3571,-88.4629,0.3,20.6,1111122 
NERRS,ioos:station:NOAA.NERRS:gndblwq:1,2014-01-09T09:00:00Z,30.3571,-88.4629,0.29,20.6,1111122 
NERRS,ioos:station:NOAA.NERRS:gndblwq:1,2014-01-09T10:00:00Z,30.3571,-88.4629,0.27,20.7,1111122 
NERRS,ioos:station:NOAA.NERRS:gndblwq:1,2014-01-09T11:00:00Z,30.3571,-88.4629,0.22,20.7,1111122 
NERRS,ioos:station:NOAA.NERRS:gndblwq:1,2014-01-09T12:00:00Z,30.3571,-88.4629,0.22,20.7,1111122 
NERRS,ioos:station:NOAA.NERRS:gndblwq:1,2014-01-09T13:00:00Z,30.3571,-88.4629,0.26,20.8,1111122 
NERRS,ioos:station:NOAA.NERRS:gndblwq:1,2014-01-09T14:00:00Z,30.3571,-88.4629,0.32,21.0,1111122 
NERRS,ioos:station:NOAA.NERRS:gndblwq:1,2014-01-09T15:00:00Z,30.3571,-88.4629,0.38,22.4,1111122 
NERRS,ioos:station:NOAA.NERRS:gndblwq:1,2014-01-09T16:00:00Z,30.3571,-88.4629,0.43,23.4,1111122 
NERRS,ioos:station:NOAA.NERRS:gndblwq:1,2014-01-09T17:00:00Z,30.3571,-88.4629,0.46,23.7,1111122 
NERRS,ioos:station:NOAA.NERRS:gndblwq:1,2014-01-09T18:00:00Z,30.3571,-88.4629,0.5,23.3,1111122 
NERRS,ioos:station:NOAA.NERRS:gndblwq:1,2014-01-09T19:00:00Z,30.3571,-88.4629,0.56,23.6,1111122 
NERRS,ioos:station:NOAA.NERRS:gndblwq:1,2014-01-09T20:00:00Z,30.3571,-88.4629,0.61,23.8,1111122 
NERRS,ioos:station:NOAA.NERRS:gndblwq:1,2014-01-09T21:00:00Z,30.3571,-88.4629,0.64,24.0,1111122 
NERRS,ioos:station:NOAA.NERRS:gndblwq:1,2014-01-09T22:00:00Z,30.3571,-88.4629,0.66,24.1,1111122 
NERRS,ioos:station:NOAA.NERRS:gndblwq:1,2014-01-09T23:00:00Z,30.3571,-88.4629,0.65,24.2,1111122 
NERRS,ioos:station:NOAA.NERRS:gndblwq:1,2014-01-10T00:00:00Z,30.3571,-88.4629,0.66,23.9,1111122 
NERRS,ioos:station:NOAA.NERRS:gndblwq:1,2014-01-10T01:00:00Z,30.3571,-88.4629,0.66,24.1,1111122 
NERRS,ioos:station:NOAA.NERRS:gndblwq:1,2014-01-10T02:00:00Z,30.3571,-88.4629,0.64,23.2,1111122 
NERRS,ioos:station:NOAA.NERRS:gndblwq:1,2014-01-10T03:00:00Z,30.3571,-88.4629,0.6,22.8,1111122 
NERRS,ioos:station:NOAA.NERRS:gndblwq:1,2014-01-10T04:00:00Z,30.3571,-88.4629,0.54,22.9,1111122 
NERRS,ioos:station:NOAA.NERRS:gndblwq:1,2014-01-10T05:00:00Z,30.3571,-88.4629,0.47,22.9,1111122 
NERRS,ioos:station:NOAA.NERRS:gndblwq:1,2014-01-10T06:00:00Z,30.3571,-88.4629,0.42,21.6,1111122 
NERRS,ioos:station:NOAA.NERRS:gndblwq:1,2014-01-10T07:00:00Z,30.3571,-88.4629,0.34,20.9,1111122 
NERRS,ioos:station:NOAA.NERRS:gndblwq:1,2014-01-10T08:00:00Z,30.3571,-88.4629,0.3,20.6,1111122 
NERRS,ioos:station:NOAA.NERRS:gndblwq:1,2014-01-10T09:00:00Z,30.3571,-88.4629,0.28,20.7,1111122 
NERRS,ioos:station:NOAA.NERRS:gndblwq:1,2014-01-10T10:00:00Z,30.3571,-88.4629,0.26,20.8,1111122 
NERRS,ioos:station:NOAA.NERRS:gndblwq:1,2014-01-10T11:00:00Z,30.3571,-88.4629,0.23,20.7,1111122 
NERRS,ioos:station:NOAA.NERRS:gndblwq:1,2014-01-10T12:00:00Z,30.3571,-88.4629,0.2,21.0,1111122 
NERRS,ioos:station:NOAA.NERRS:gndblwq:1,2014-01-10T13:00:00Z,30.3571,-88.4629,0.22,21.4,1111122 
NERRS,ioos:station:NOAA.NERRS:gndblwq:1,2014-01-10T14:00:00Z,30.3571,-88.4629,0.31,22.2,1111122 
NERRS,ioos:station:NOAA.NERRS:gndblwq:1,2014-01-10T15:00:00Z,30.3571,-88.4629,0.39,23.2,1111122 
NERRS,ioos:station:NOAA.NERRS:gndblwq:1,2014-01-10T16:00:00Z,30.3571,-88.4629,0.46,23.1,1111122 
NERRS,ioos:station:NOAA.NERRS:gndblwq:1,2014-01-10T17:00:00Z,30.3571,-88.4629,0.48,23.0,1111122 
NERRS,ioos:station:NOAA.NERRS:gndblwq:1,2014-01-10T18:00:00Z,30.3571,-88.4629,0.49,23.0,1111122 
NERRS,ioos:station:NOAA.NERRS:gndblwq:1,2014-01-10T19:00:00Z,30.3571,-88.4629,0.53,22.8,1111122 
NERRS,ioos:station:NOAA.NERRS:gndblwq:1,2014-01-10T20:00:00Z,30.3571,-88.4629,0.57,22.2,1111122 
NERRS,ioos:station:NOAA.NERRS:gndblwq:1,2014-01-10T21:00:00Z,30.3571,-88.4629,0.63,22.0,1111122 
NERRS,ioos:station:NOAA.NERRS:gndblwq:1,2014-01-10T22:00:00Z,30.3571,-88.4629,0.69,22.2,1111122 
NERRS,ioos:station:NOAA.NERRS:gndblwq:1,2014-01-10T23:00:00Z,30.3571,-88.4629,0.73,21.1,1111122 
NERRS,ioos:station:NOAA.NERRS:gndblwq:1,2014-01-11T00:00:00Z,30.3571,-88.4629,0.73,21.4,1111122 
NERRS,ioos:station:NOAA.NERRS:gndblwq:1,2014-01-11T01:00:00Z,30.3571,-88.4629,0.71,21.8,1111122 
NERRS,ioos:station:NOAA.NERRS:gndblwq:1,2014-01-11T02:00:00Z,30.3571,-88.4629,0.69,22.2,1111122 
NERRS,ioos:station:NOAA.NERRS:gndblwq:1,2014-01-11T03:00:00Z,30.3571,-88.4629,0.69,22.0,1111122 
NERRS,ioos:station:NOAA.NERRS:gndblwq:1,2014-01-11T04:00:00Z,30.3571,-88.4629,0.68,22.3,1111122 
NERRS,ioos:station:NOAA.NERRS:gndblwq:1,2014-01-11T05:00:00Z,30.3571,-88.4629,0.62,21.9,1111122 
NERRS,ioos:station:NOAA.NERRS:gndblwq:1,2014-01-11T06:00:00Z,30.3571,-88.4629,0.54,22.1,1111122 
NERRS,ioos:station:NOAA.NERRS:gndblwq:1,2014-01-11T07:00:00Z,30.3571,-88.4629,0.44,22.3,1111122 
NERRS,ioos:station:NOAA.NERRS:gndblwq:1,2014-01-11T08:00:00Z,30.3571,-88.4629,0.37,22.4,1111122 
NERRS,ioos:station:NOAA.NERRS:gndblwq:1,2014-01-11T09:00:00Z,30.3571,-88.4629,0.32,21.9,1111122 
NERRS,ioos:station:NOAA.NERRS:gndblwq:1,2014-01-11T10:00:00Z,30.3571,-88.4629,0.3,21.8,1111122 
NERRS,ioos:station:NOAA.NERRS:gndblwq:1,2014-01-11T11:00:00Z,30.3571,-88.4629,0.3,22.0,1111122 
NERRS,ioos:station:NOAA.NERRS:gndblwq:1,2014-01-11T12:00:00Z,30.3571,-88.4629,0.29,22.2,1111122 
NERRS,ioos:station:NOAA.NERRS:gndblwq:1,2014-01-11T13:00:00Z,30.3571,-88.4629,0.3,22.9,1111122 
NERRS,ioos:station:NOAA.NERRS:gndblwq:1,2014-01-11T14:00:00Z,30.3571,-88.4629,0.29,21.6,1111122 
NERRS,ioos:station:NOAA.NERRS:gndblwq:1,2014-01-11T15:00:00Z,30.3571,-88.4629,0.36,21.7,1111122 
NERRS,ioos:station:NOAA.NERRS:gndblwq:1,2014-01-11T16:00:00Z,30.3571,-88.4629,0.43,21.7,1111122 
NERRS,ioos:station:NOAA.NERRS:gndblwq:1,2014-01-11T17:00:00Z,30.3571,-88.4629,0.42,21.6,1111122 
NERRS,ioos:station:NOAA.NERRS:gndblwq:1,2014-01-11T18:00:00Z,30.3571,-88.4629,0.32,21.9,1111122 
NERRS,ioos:station:NOAA.NERRS:gndblwq:1,2014-01-11T19:00:00Z,30.3571,-88.4629,0.35,21.8,1111122 
NERRS,ioos:station:NOAA.NERRS:gndblwq:1,2014-01-11T20:00:00Z,30.3571,-88.4629,0.41,21.5,1111122 
NERRS,ioos:station:NOAA.NERRS:gndblwq:1,2014-01-11T20:45:00Z,30.3571,-88.4629,0.48,21.5,1111122 
NERRS,ioos:station:NOAA.NERRS:gndblwq:1,2014-01-11T22:00:00Z,30.3571,-88.4629,0.59,21.0,1111122 
NERRS,ioos:station:NOAA.NERRS:gndblwq:1,2014-01-11T23:00:00Z,30.3571,-88.4629,0.59,21.5,1111122 
NERRS,ioos:station:NOAA.NERRS:gndblwq:1,2014-01-12T00:00:00Z,30.3571,-88.4629,0.56,21.0,1111122 
NERRS,ioos:station:NOAA.NERRS:gndblwq:1,2014-01-12T01:00:00Z,30.3571,-88.4629,0.54,21.1,1111122 
NERRS,ioos:station:NOAA.NERRS:gndblwq:1,2014-01-12T02:00:00Z,30.3571,-88.4629,0.52,21.5,1111122 
NERRS,ioos:station:NOAA.NERRS:gndblwq:1,2014-01-12T03:00:00Z,30.3571,-88.4629,0.5,21.2,1111122 
NERRS,ioos:station:NOAA.NERRS:gndblwq:1,2014-01-12T04:00:00Z,30.3571,-88.4629,0.51,21.3,1111122 
NERRS,ioos:station:NOAA.NERRS:gndblwq:1,2014-01-12T05:00:00Z,30.3571,-88.4629,0.44,21.4,1111122 
NERRS,ioos:station:NOAA.NERRS:gndblwq:1,2014-01-12T06:00:00Z,30.3571,-88.4629,0.35,21.3,1111122 
NERRS,ioos:station:NOAA.NERRS:gndblwq:1,2014-01-12T07:00:00Z,30.3571,-88.4629,0.26,21.3,1111122 
NERRS,ioos:station:NOAA.NERRS:gndblwq:1,2014-01-12T07:45:00Z,30.3571,-88.4629,0.2,21.3,1111122 
NERRS,ioos:station:NOAA.NERRS:gndblwq:1,2014-01-12T09:00:00Z,30.3571,-88.4629,0.14,21.2,1111122 
NERRS,ioos:station:NOAA.NERRS:gndblwq:1,2014-01-12T09:45:00Z,30.3571,-88.4629,0.13,20.1,1111122 
NERRS,ioos:station:NOAA.NERRS:gndblwq:1,2014-01-12T11:00:00Z,30.3571,-88.4629,0.11,20.1,1111122 
NERRS,ioos:station:NOAA.NERRS:gndblwq:1,2014-01-12T12:00:00Z,30.3571,-88.4629,0.1,19.7,1111122 
NERRS,ioos:station:NOAA.NERRS:gndblwq:1,2014-01-12T13:00:00Z,30.3571,-88.4629,0.11,19.9,1111122 
NERRS,ioos:station:NOAA.NERRS:gndblwq:1,2014-01-12T14:00:00Z,30.3571,-88.4629,0.16,19.8,1111122 
NERRS,ioos:station:NOAA.NERRS:gndblwq:1,2014-01-12T15:00:00Z,30.3571,-88.4629,0.24,20.4,1111122 
NERRS,ioos:station:NOAA.NERRS:gndblwq:1,2014-01-12T16:00:00Z,30.3571,-88.4629,0.33,20.5,1111122 
NERRS,ioos:station:NOAA.NERRS:gndblwq:1,2014-01-12T17:00:00Z,30.3571,-88.4629,0.38,20.7,1111122 
NERRS,ioos:station:NOAA.NERRS:gndblwq:1,2014-01-12T18:00:00Z,30.3571,-88.4629,0.41,20.7,1111122 
NERRS,ioos:station:NOAA.NERRS:gndblwq:1,2014-01-12T19:00:00Z,30.3571,-88.4629,0.43,20.7,1111122 
NERRS,ioos:station:NOAA.NERRS:gndblwq:1,2014-01-12T20:00:00Z,30.3571,-88.4629,0.5,20.7,1111122 
NERRS,ioos:station:NOAA.NERRS:gndblwq:1,2014-01-12T21:00:00Z,30.3571,-88.4629,0.57,20.8,1111122 
NERRS,ioos:station:NOAA.NERRS:gndblwq:1,2014-01-12T22:00:00Z,30.3571,-88.4629,0.62,20.8,1111122 
NERRS,ioos:station:NOAA.NERRS:gndblwq:1,2014-01-12T23:00:00Z,30.3571,-88.4629,0.66,20.7,1111122 
NERRS,ioos:station:NOAA.NERRS:gndblwq:1,2014-01-12T23:45:00Z,30.3571,-88.4629,0.67,20.6,1111122 
NERRS,ioos:station:NOAA.NERRS:gndblwq:1,2014-01-13T01:00:00Z,30.3571,-88.4629,0.69,19.7,1111122 
NERRS,ioos:station:NOAA.NERRS:gndblwq:1,2014-01-13T02:00:00Z,30.3571,-88.4629,0.69,20.6,1111122 
NERRS,ioos:station:NOAA.NERRS:gndblwq:1,2014-01-13T03:00:00Z,30.3571,-88.4629,0.67,20.5,1111122 
NERRS,ioos:station:NOAA.NERRS:gndblwq:1,2014-01-13T04:00:00Z,30.3571,-88.4629,0.64,20.5,1111122 
NERRS,ioos:station:NOAA.NERRS:gndblwq:1,2014-01-13T05:00:00Z,30.3571,-88.4629,0.58,20.5,1111122 
NERRS,ioos:station:NOAA.NERRS:gndblwq:1,2014-01-13T06:00:00Z,30.3571,-88.4629,0.5,20.6,1111122 
NERRS,ioos:station:NOAA.NERRS:gndblwq:1,2014-01-13T07:00:00Z,30.3571,-88.4629,0.41,20.6,1111122 
NERRS,ioos:station:NOAA.NERRS:gndblwq:1,2014-01-13T08:00:00Z,30.3571,-88.4629,0.33,20.6,1111122 
NERRS,ioos:station:NOAA.NERRS:gndblwq:1,2014-01-13T09:00:00Z,30.3571,-88.4629,0.24,20.7,1111122 
NERRS,ioos:station:NOAA.NERRS:gndblwq:1,2014-01-13T10:00:00Z,30.3571,-88.4629,0.18,20.7,1111122 
NERRS,ioos:station:NOAA.NERRS:gndblwq:1,2014-01-13T11:00:00Z,30.3571,-88.4629,0.16,20.7,1111122 
NERRS,ioos:station:NOAA.NERRS:gndblwq:1,2014-01-13T12:00:00Z,30.3571,-88.4629,0.17,20.5,1111122 
NERRS,ioos:station:NOAA.NERRS:gndblwq:1,2014-01-13T13:00:00Z,30.3571,-88.4629,0.15,20.4,1111122 
NERRS,ioos:station:NOAA.NERRS:gndblwq:1,2014-01-13T14:00:00Z,30.3571,-88.4629,0.15,20.5,1111122 
NERRS,ioos:station:NOAA.NERRS:gndblwq:1,2014-01-13T15:00:00Z,30.3571,-88.4629,0.2,20.4,1111122 
NERRS,ioos:station:NOAA.NERRS:gndblwq:1,2014-01-13T16:00:00Z,30.3571,-88.4629,0.26,20.4,1111122 
NERRS,ioos:station:NOAA.NERRS:gndblwq:1,2014-01-13T17:00:00Z,30.3571,-88.4629,0.3,20.2,1111122 
NERRS,ioos:station:NOAA.NERRS:gndblwq:1,2014-01-13T18:00:00Z,30.3571,-88.4629,0.36,20.0,1111122 
NERRS,ioos:station:NOAA.NERRS:gndblwq:1,2014-01-13T19:00:00Z,30.3571,-88.4629,0.4,20.0,1111122 
NERRS,ioos:station:NOAA.NERRS:gndblwq:1,2014-01-13T20:00:00Z,30.3571,-88.4629,0.45,19.5,1111122 
NERRS,ioos:station:NOAA.NERRS:gndblwq:1,2014-01-13T21:00:00Z,30.3571,-88.4629,0.51,19.0,1111122 
NERRS,ioos:station:NOAA.NERRS:gndblwq:1,2014-01-13T22:00:00Z,30.3571,-88.4629,0.55,19.1,1111122 
NERRS,ioos:station:NOAA.NERRS:gndblwq:1,2014-01-13T23:00:00Z,30.3571,-88.4629,0.62,18.7,1111122 